Pleasanton, CA

5:47 PM PST on January 24, 2017 (GMT -0800)
Livermore Municipal

Weather History for KLVK - October, 2011

Change the Weather History Date:

Tuesday, October 4, 2011

  Actual Average Record
Temperature  
Mean Temperature 63 °F 66 °F  
Max Temperature 69 °F 80 °F 106 °F (1980)
Min Temperature 56 °F 52 °F 40 °F (1973)
Degree Days  
Heating Degree Days 2 2  
Month to date heating degree days 8 5  
Since 1 July heating degree days 19 29  
Cooling Degree Days 0 3  
Month to date cooling degree days 3 12  
Year to date cooling degree days 753 801  
Growing Degree Days 13 (Base 50)    
Moisture  
Dew Point 53 °F    
Average Humidity 70    
Maximum Humidity 90    
Minimum Humidity 49    
Precipitation  
Precipitation 0.10 in 0.02 in 0.20 in (2008)
Month to date precipitation 0.20 0.06  
Year to date precipitation 9.97 10.19  
Since 1 July precipitation 0.20  
Sea Level Pressure  
Sea Level Pressure 29.87 in    
Wind  
Wind Speed 8 mph (SW)    
Max Wind Speed 17 mph    
Max Gust Speed 22 mph    
Visibility 10 miles    
Events Rain    
T = Trace of Precipitation, MM = Missing Value Source: NWS Daily Summary

Daily Weather History Graph

Daily Weather History Graph

Search for Another Location

Airport or City:

Trip Planner

Search our weather history database for the weather conditions in past years. The results will help you decide how hot, cold, wet, or windy it might be!

Date:

Astronomy

Oct. 04, 2011 Rise Set
Actual Time 7:05 AM PDT 6:46 PM PDT
Civil Twilight 6:39 AM PDT 7:12 PM PDT
Nautical Twilight 6:08 AM PDT 7:42 PM PDT
Astronomical Twilight 5:38 AM PDT 8:13 PM PDT
Moon 2:44 PM PDT (10/4) 12:02 AM PDT (10/4)
Length of Visible Light 12h 33m
Length of Day
11h 40m
First Quarter, 57% of the Moon is Illuminated
Oct 4
First Quarter
Oct 11
Full
Oct 19
Last Quarter
Oct 26
New
Nov 2
First Quarter

Hourly Weather History & Observations

Time (PDT) Temp. Dew Point Humidity Pressure Visibility Wind Dir Wind Speed Gust Speed Precip Events Conditions
12:08 AM 59.0 °F 55.4 °F 88% 29.88 in 10.0 mi Calm Calm - N/A   Overcast
12:53 AM 59.0 °F 55.9 °F 90% 29.87 in 10.0 mi Calm Calm - N/A   Overcast
1:42 AM 60.8 °F 55.4 °F 82% 29.88 in 10.0 mi Calm Calm - N/A   Overcast
1:53 AM 60.1 °F 57.0 °F 90% 29.88 in 10.0 mi Calm Calm - N/A   Overcast
2:01 AM 60.8 °F 57.2 °F 88% 29.88 in 10.0 mi WSW 5.8 mph - N/A   Overcast
2:53 AM 59.0 °F 55.9 °F 90% 29.88 in 10.0 mi Calm Calm - N/A   Overcast
3:06 AM 59.0 °F 55.4 °F 88% 29.87 in 10.0 mi Calm Calm - N/A   Overcast
3:32 AM 59.0 °F 57.2 °F 94% 29.87 in 10.0 mi SSW 6.9 mph - N/A   Overcast
3:41 AM 59.0 °F 55.4 °F 88% 29.86 in 10.0 mi SSW 6.9 mph - N/A   Overcast
4:53 AM 57.9 °F 54.0 °F 87% 29.88 in 10.0 mi SW 6.9 mph - N/A   Overcast
5:30 AM 57.2 °F 53.6 °F 88% 29.88 in 10.0 mi SSW 8.1 mph - N/A   Mostly Cloudy
5:53 AM 57.9 °F 54.0 °F 87% 29.88 in 10.0 mi WSW 10.4 mph - N/A   Mostly Cloudy
6:32 AM 57.2 °F 53.6 °F 88% 29.90 in 10.0 mi WSW 4.6 mph - N/A   Overcast
7:28 AM 57.2 °F 53.6 °F 88% 29.90 in 10.0 mi SSW 4.6 mph - N/A   Overcast
7:29 AM 57.2 °F 53.6 °F 88% 29.90 in 10.0 mi SSW 4.6 mph - N/A   Overcast
7:30 AM 57.2 °F 53.6 °F 88% 29.90 in 10.0 mi SSW 4.6 mph - N/A   Overcast
7:53 AM 59.0 °F 55.0 °F 87% 29.91 in 10.0 mi SW 5.8 mph - N/A   Mostly Cloudy
8:53 AM 60.1 °F 55.0 °F 83% 29.91 in 10.0 mi SW 8.1 mph - N/A   Overcast
9:53 AM 62.1 °F 55.0 °F 78% 29.91 in 10.0 mi SSW 8.1 mph - N/A   Overcast
10:48 AM 62.6 °F 53.6 °F 72% 29.92 in 10.0 mi WSW 9.2 mph - 0.00 in   Overcast
10:53 AM 61.0 °F 54.0 °F 78% 29.92 in 8.0 mi SW 10.4 mph - 0.00 in   Overcast
11:53 AM 62.1 °F 51.1 °F 67% 29.93 in 10.0 mi WSW 11.5 mph - 0.00 in   Overcast
12:00 PM 62.6 °F 51.8 °F 68% 29.93 in 10.0 mi West 13.8 mph - N/A   Overcast
12:53 PM 64.9 °F 50.0 °F 58% 29.92 in 10.0 mi WSW 9.2 mph - N/A   Scattered Clouds
1:53 PM 69.1 °F 50.0 °F 51% 29.90 in 10.0 mi West 13.8 mph - N/A   Mostly Cloudy
3:53 PM 64.0 °F 48.9 °F 58% 29.89 in 10.0 mi West 12.7 mph - N/A   Clear
3:55 PM 64.4 °F 48.2 °F 56% 29.89 in 10.0 mi West 13.8 mph - N/A   Mostly Cloudy
4:53 PM 63.0 °F 48.9 °F 60% 29.86 in 10.0 mi West 10.4 mph - N/A   Mostly Cloudy
5:53 PM 62.1 °F 50.0 °F 65% 29.86 in 10.0 mi WNW 8.1 mph - 0.00 in Rain Light Rain
6:53 PM 61.0 °F 51.1 °F 70% 29.83 in 10.0 mi West 6.9 mph - 0.00 in   Mostly Cloudy
7:53 PM 61.0 °F 48.9 °F 64% 29.83 in 10.0 mi SW 11.5 mph 21.9 mph N/A   Overcast
8:53 PM 60.1 °F 51.1 °F 72% 29.82 in 10.0 mi SSW 9.2 mph - 0.00 in Rain Light Rain
9:53 PM 59.0 °F 50.0 °F 72% 29.79 in 10.0 mi South 5.8 mph - 0.00 in Rain Light Rain
10:53 PM 57.9 °F 50.0 °F 75% 29.76 in 10.0 mi SW 5.8 mph - 0.00 in Rain Light Rain
11:53 PM 57.0 °F 51.1 °F 81% 29.73 in 6.0 mi Calm Calm - 0.03 in Rain Light Rain